sat.trackr.live / text

‹ back to catalog

ONEWEB-0046

NORAD 45447 · 2020-020Z

PAYLOAD ACTIVE UNKNOWN

§ Identity

Operator
Country
UK
Launch date
2020-03-21
Launch site
TYMSC
Launch vehicle
Mass (kg)
RCS (m²)

Purposes: comms

External: N2YO · Heavens-Above · Gunter

§ Orbital elements

Epoch: 2026-05-25T02:28:52.036320Z

Period
109.80 min
Inclination
87.8917°
Eccentricity
0.0002066
Mean motion
13.11418383 rev/d
Perigee alt
1,216.1 km
Apogee alt
1,219.2 km
Semi-major
7,595.8 km
B*
7.5131e-4
RAAN
25.6619°
Arg perigee
83.0841°
Mean anomaly
277.0522°
Rev number
29,958

§ Raw data

ONEWEB-00461 45447U 20020Z   26145.10338005  .00000279  00000+0  75131-3 0  99932 45447  87.8917  25.6619 0002066  83.0841 277.0522 13.11418383299584

JSON: /api/v1/satellites/45447 · /tle

For live sub-satellite position, see the globe view (requires WebGL).

§ Visibility from observer

Set your observer location to see the next 7 days of passes ≥ 10°. The values pass through the URL so the page stays shareable.

No JS? Fill the form by hand. The geolocation button needs JavaScript.